World > North America > United States > California

Los Angeles, California Regional Weather

Lat: 34.04N, Lon: 118.3W
Wx Zone: CAZ041
Feedback

Los Angeles, CA Regional Weather

Expires:201909182200;;992455
ASUS46 KLOX 182114
RWRCA 

SOUTHERN CALIFORNIA WEATHER ROUNDUP
NATIONAL WEATHER SERVICE OXNARD CALIFORNIA
200 PM PDT WED SEP 18 2019

NOTE: "FAIR" INDICATES FEW OR NO CLOUDS BELOW 12,000 FEET WITH NO 
SIGNIFICANT WEATHER AND/OR OBSTRUCTIONS TO VISIBILITY.

  -  STATIONS PRECEEDED BY AN ASTERISK (*) ARE NOT NWS OR FAA 
     STATIONS AND ARE NOT SUBJECT TO NWS AND FAA QUALITY CONTROL.


CAZ041-042-087-182200-
LA AND ORANGE COUNTY COASTAL AREAS

  
CITY           SKY/WX    TMP DP  RH WIND       PRES   REMARKS
L.A. DOWNTOWN  SUNNY     80  62  54 CALM      29.89F                  
L.A. AIRPORT   MOSUNNY   77  62  59 SW12      29.91F                  
LONG BEACH     SUNNY     77  59  53 SW8       29.91F                  

CITY           SKY/WX    TMP DP  RH WIND       PRES   REMARKS
AVALON           N/A     77 N/A N/A MISG        N/A                   
FULLERTON      SUNNY     79  59  50 VRB6      29.89F                  
HAWTHORNE      SUNNY     78  60  53 W10       29.90F                  
*LEO CARRILLO    N/A     74  63  68 SE3         N/A                   
*REDONDO BEACH   N/A     78  63  58 CALM      29.89F                  
SANTA ANA      MOSUNNY   77  61  57 S13       29.90F                  
STA MONICA APT SUNNY     73  63  70 W10       29.91F                  
TORRANCE       SUNNY     79  57  47 NE6       29.90F                  
*UCLA            N/A    N/A N/A N/A S8        29.88F                  

$$


SKY/WX - Weather  TMP - Temperature  DP - Dew Point  RH - Relative Humidity
WIND - Wind Direction/Speed PRES - Barometric Pressure VSB - Visibility
WCI - Wind Chill Index E13G22 Wind - East Wind 13 mph/Gusts of 22 mph